| time (UTC) | temp F | wind direction | speed knots | gust knots | rain 1hr in | rain 24hr in | rain mn in | humidity % | barometer mb |
| 20260506001608 | 75 | 180 | 0.0 | 1.7 | 0.00 | 0.00 | 0.00 | 50 | 1014.5 |
| 20260506000050 | 76 | 0 | 0.0 | 3.5 | 0.00 | 0.00 | 0.00 | 48 | 1014.3 |
| 20260505234552 | 77 | 0 | 0.0 | 2.6 | 0.00 | 0.00 | 0.00 | 47 | 1014.4 |
| 20260505233055 | 77 | 0 | 0.0 | 1.7 | 0.00 | 0.00 | 0.00 | 49 | 1014.2 |
| 20260505231552 | 77 | 255 | 0.0 | 2.6 | 0.00 | 0.00 | 0.00 | 46 | 1014.4 |
| 20260505230100 | 78 | 192 | 0.0 | 4.3 | 0.00 | 0.00 | 0.00 | 44 | 1014.3 |
| 20260505224553 | 80 | 176 | 0.9 | 6.1 | 0.00 | 0.00 | 0.00 | 43 | 1014.4 |
| 20260505223057 | 81 | 198 | 1.7 | 3.5 | 0.00 | 0.00 | 0.00 | 41 | 1014.0 |
| 20260505221555 | 82 | 186 | 0.9 | 4.3 | 0.00 | 0.00 | 0.00 | 41 | 1014.2 |
| 20260505220056 | 82 | 167 | 1.7 | 7.0 | 0.00 | 0.00 | 0.00 | 41 | 1014.3 |
| 20260505214604 | 82 | 212 | 0.9 | 6.1 | 0.00 | 0.00 | 0.00 | 40 | 1014.3 |
| 20260505213058 | 82 | 163 | 0.9 | 7.0 | 0.00 | 0.00 | 0.00 | 39 | 1014.3 |
| 20260505211548 | 82 | 173 | 0.9 | 6.1 | 0.00 | 0.00 | 0.00 | 38 | 1014.4 |
| 20260505210059 | 81 | 122 | 1.7 | 8.7 | 0.00 | 0.00 | 0.00 | 39 | 1014.3 |
| 20260505204550 | 81 | 155 | 0.9 | 7.8 | 0.00 | 0.00 | 0.00 | 41 | 1014.5 |
| 20260505203051 | 81 | 0 | 0.9 | 8.7 | 0.00 | 0.00 | 0.00 | 41 | 1015.1 |
| 20260505201559 | 81 | 84 | 1.7 | 7.0 | 0.00 | 0.00 | 0.00 | 40 | 1015.1 |
| 20260505200048 | 81 | 113 | 1.7 | 6.1 | 0.00 | 0.00 | 0.00 | 40 | 1015.4 |
| 20260505194555 | 82 | 160 | 0.9 | 7.0 | 0.00 | 0.00 | 0.00 | 41 | 1015.4 |
| 20260505193050 | 82 | 148 | 0.9 | 7.0 | 0.00 | 0.00 | 0.00 | 39 | 1015.6 |
| 20260505191553 | 81 | 132 | 1.7 | 7.8 | 0.00 | 0.00 | 0.00 | 40 | 1015.7 |
| 20260505190111 | 82 | 110 | 2.6 | 7.0 | 0.00 | 0.00 | 0.00 | 39 | 1016.0 |
| 20260505184601 | 82 | 316 | 1.7 | 10.4 | 0.00 | 0.00 | 0.00 | 38 | 1016.0 |
| 20260505183054 | 81 | 117 | 1.7 | 7.0 | 0.00 | 0.00 | 0.00 | 40 | 1016.5 |
| 20260505181557 | 80 | 172 | 0.0 | 6.1 | 0.00 | 0.00 | 0.00 | 46 | 1016.4 |
| 20260505180052 | 80 | 292 | 1.7 | 7.8 | 0.00 | 0.00 | 0.00 | 43 | 1016.8 |
| 20260505174552 | 80 | 241 | 1.7 | 7.8 | 0.00 | 0.00 | 0.00 | 39 | 1016.9 |
| 20260505173053 | 79 | 224 | 1.7 | 7.0 | 0.00 | 0.00 | 0.00 | 41 | 1017.0 |
| 20260505171551 | 79 | 0 | 0.9 | 9.6 | 0.00 | 0.00 | 0.00 | 43 | 1016.9 |
| 20260505170059 | 78 | 237 | 1.7 | 9.6 | 0.00 | 0.00 | 0.00 | 41 | 1017.0 |
| 20260505164552 | 78 | 142 | 0.9 | 7.0 | 0.00 | 0.00 | 0.00 | 45 | 1017.1 |
| 20260505163058 | 77 | 182 | 1.7 | 6.1 | 0.00 | 0.00 | 0.00 | 47 | 1017.2 |
| 20260505161548 | 79 | 272 | 1.7 | 7.8 | 0.00 | 0.00 | 0.00 | 46 | 1017.2 |
| 20260505153102 | 76 | 142 | 0.9 | 6.1 | 0.00 | 0.00 | 0.00 | 53 | 1017.3 |
| 20260505151551 | 75 | 244 | 0.9 | 3.5 | 0.00 | 0.00 | 0.00 | 54 | 1017.6 |
| 20260505150108 | 73 | 115 | 0.0 | 1.7 | 0.00 | 0.00 | 0.00 | 60 | 1017.4 |
| 20260505140104 | 66 | 0 | 0.0 | 1.7 | 0.00 | 0.00 | 0.00 | 71 | 1017.5 |
| 20260505124611 | 52 | 0 | 0.0 | 2.6 | 0.00 | 0.00 | 0.00 | 100 | 1016.9 |
| 20260505123114 | 50 | 0 | 0.0 | 0.9 | 0.00 | 0.00 | 0.00 | 100 | 1017.0 |
| 20260505121552 | 47 | 0 | 0.0 | 0.9 | 0.00 | 0.00 | 0.00 | 99 | 1017.0 |
| 20260505120054 | 46 | 0 | 0.0 | 0.9 | 0.00 | 0.00 | 0.00 | 99 | 1016.9 |
| 20260505114602 | 45 | 0 | 0.0 | 0.0 | 0.00 | 0.00 | 0.00 | 99 | 1016.6 |
| 20260505113055 | 44 | 0 | 0.0 | 0.0 | 0.00 | 0.00 | 0.00 | 98 | 1016.5 |
| 20260505111600 | 44 | 0 | 0.0 | 0.0 | 0.00 | 0.00 | 0.00 | 97 | 1016.4 |
| 20260505101555 | 44 | 0 | 0.0 | 1.7 | 0.00 | 0.00 | 0.00 | 97 | 1016.4 |
| 20260505100103 | 45 | 0 | 0.0 | 0.9 | 0.00 | 0.00 | 0.00 | 97 | 1016.3 |
| 20260505094604 | 45 | 0 | 0.0 | 3.5 | 0.00 | 0.00 | 0.00 | 97 | 1016.3 |
| 20260505093058 | 45 | 0 | 0.0 | 4.3 | 0.00 | 0.00 | 0.00 | 97 | 1016.3 |
| 20260505091549 | 45 | 0 | 0.0 | 0.0 | 0.00 | 0.00 | 0.00 | 97 | 1016.2 |
| 20260505090058 | 45 | 207 | 0.0 | 0.0 | 0.00 | 0.00 | 0.00 | 96 | 1016.3 |
| 20260505084550 | 45 | 0 | 0.0 | 0.9 | 0.00 | 0.00 | 0.00 | 96 | 1016.2 |
| 20260505083106 | 46 | 0 | 0.0 | 0.0 | 0.00 | 0.00 | 0.00 | 96 | 1016.4 |
| 20260505081552 | 46 | 0 | 0.0 | 0.0 | 0.00 | 0.00 | 0.00 | 96 | 1016.3 |
| 20260505080056 | 46 | 0 | 0.0 | 0.0 | 0.00 | 0.00 | 0.00 | 96 | 1016.4 |
| 20260505074549 | 46 | 0 | 0.0 | 0.9 | 0.00 | 0.00 | 0.00 | 96 | 1016.2 |
| 20260505073057 | 47 | 0 | 0.0 | 0.9 | 0.00 | 0.00 | 0.00 | 95 | 1016.3 |
| 20260505071548 | 47 | 0 | 0.0 | 0.9 | 0.00 | 0.00 | 0.00 | 95 | 1016.2 |
| 20260505070057 | 47 | 0 | 0.0 | 0.9 | 0.00 | 0.00 | 0.00 | 95 | 1016.3 |
| 20260505064551 | 47 | 0 | 0.0 | 0.0 | 0.00 | 0.00 | 0.00 | 94 | 1016.3 |
| 20260505063051 | 48 | 0 | 0.0 | 0.0 | 0.00 | 0.00 | 0.00 | 94 | 1016.4 |
| 20260505061602 | 48 | 0 | 0.0 | 0.0 | 0.00 | 0.00 | 0.00 | 94 | 1016.5 |
| 20260505060051 | 48 | 0 | 0.0 | 0.0 | 0.00 | 0.00 | 0.00 | 93 | 1016.5 |
| 20260505054557 | 49 | 0 | 0.0 | 0.0 | 0.00 | 0.00 | 0.00 | 93 | 1016.4 |
| 20260505053053 | 49 | 0 | 0.0 | 0.0 | 0.00 | 0.00 | 0.00 | 91 | 1016.6 |
| 20260505051550 | 50 | 0 | 0.0 | 0.0 | 0.00 | 0.00 | 0.00 | 91 | 1016.6 |
| 20260505050125 | 50 | 0 | 0.0 | 0.0 | 0.00 | 0.00 | 0.00 | 91 | 1016.4 |
| 20260505041604 | 52 | 0 | 0.0 | 0.0 | 0.00 | 0.00 | 0.00 | 88 | 1016.5 |
| 20260505040059 | 52 | 0 | 0.0 | 0.0 | 0.00 | 0.00 | 0.00 | 87 | 1016.6 |
| 20260505034554 | 53 | 0 | 0.0 | 0.0 | 0.00 | 0.00 | 0.00 | 86 | 1016.5 |
| 20260505033050 | 54 | 0 | 0.0 | 0.0 | 0.00 | 0.00 | 0.00 | 84 | 1016.6 |
| 20260505031550 | 54 | 0 | 0.0 | 0.0 | 0.00 | 0.00 | 0.00 | 82 | 1016.6 |
| 20260505030052 | 55 | 0 | 0.0 | 0.0 | 0.00 | 0.00 | 0.00 | 81 | 1016.6 |
| 20260505024550 | 56 | 0 | 0.0 | 0.0 | 0.00 | 0.00 | 0.00 | 78 | 1016.4 |
| 20260505023054 | 57 | 0 | 0.0 | 0.0 | 0.00 | 0.00 | 0.00 | 77 | 1016.4 |
| 20260505021550 | 58 | 0 | 0.0 | 0.0 | 0.00 | 0.00 | 0.00 | 74 | 1016.3 |
| 20260505020050 | 60 | 0 | 0.0 | 0.0 | 0.00 | 0.00 | 0.00 | 71 | 1016.3 |
| 20260505014604 | 61 | 0 | 0.0 | 0.0 | 0.00 | 0.00 | 0.00 | 67 | 1016.2 |
| 20260505013054 | 63 | 0 | 0.0 | 0.0 | 0.00 | 0.00 | 0.00 | 63 | 1015.9 |
| 20260505011558 | 65 | 0 | 0.0 | 0.9 | 0.00 | 0.00 | 0.00 | 60 | 1015.9 |
| 20260505010055 | 67 | 0 | 0.0 | 0.0 | 0.00 | 0.00 | 0.00 | 56 | 1015.7 |
| 20260505004553 | 69 | 0 | 0.0 | 0.0 | 0.00 | 0.00 | 0.00 | 52 | 1015.6 |
| 20260505003054 | 71 | 0 | 0.0 | 1.7 | 0.00 | 0.00 | 0.00 | 48 | 1015.4 |